User: anonymous   Login
Location: Unspecified
(0.0000°N, 0.0000°E)
Time: 09:22:12
(UTC+02:00)
Language:

Iridium 33 - Orbit

View from above orbital plane
View from above orbital plane
View from above satellite
View from above satellite

Ground track
Ground track

The orbit data is extracted from the following two-line orbital elements,

1 24946U 97051C   16126.46789065  .00000133  00000-0  41081-4 0  9993
2 24946  86.3857  97.4058 0009649 122.5814 237.6314 14.33485666975629
Epoch (UTC): 05 May 2016 11:13:45
Eccentricity: 0.0009649
inclination: 86.3857°
perigee height: 773 km
apogee height: 787 km
right ascension of ascending node: 97.4058°
argument of perigee: 122.5814°
revolutions per day: 14.33485666
mean anomaly at epoch: 237.6314°
orbit number at epoch: 97562

The dashed part of the orbit path shows where the satellite is in the earth's shadow,  

DLR